This is the latest recevied weather packets stored in our database for station/object KB3VSP. If no packets are shown the sender has not sent any weather packets the latest 10 day(s).
| Time | Temp. | Humidity | Pressure | Rain* | Wind** | Luminosity | Snow |
|---|---|---|---|---|---|---|---|
| 1778060421 | 13.33° C | 99% | 1006.1 hPa | 0 mm | - | 0 W/m² | - |
| 1778060119 | 13.33° C | 99% | 1005.9 hPa | 1.78 mm | - | 0 W/m² | - |
| 1778059816 | 13.33° C | 99% | 1005.8 hPa | 4.83 mm | - | 0 W/m² | - |
| 1778059514 | 13.33° C | 99% | 1006.1 hPa | 4.32 mm | - | 0 W/m² | - |
| 1778059210 | 13.33° C | 99% | 1006 hPa | 3.05 mm | - | 0 W/m² | - |
| 1778058909 | 13.33° C | 99% | 1006.3 hPa | 1.78 mm | - | 0 W/m² | - |
| 1778058605 | 13.33° C | 99% | 1006.2 hPa | 3.05 mm | - | 0 W/m² | - |
| 1778058303 | 13.33° C | 99% | 1006.3 hPa | 3.05 mm | - | 0 W/m² | - |
| 1778057999 | 13.33° C | 99% | 1006.6 hPa | 1.78 mm | - | 0 W/m² | - |
| 1778057696 | 13.33° C | 99% | 1006.3 hPa | 3.05 mm | - | 0 W/m² | - |
| 1778057392 | 13.33° C | 99% | 1006.7 hPa | 4.32 mm | - | 0 W/m² | - |
| 1778057089 | 13.33° C | 99% | 1006.8 hPa | 4.83 mm | - | 0 W/m² | - |
| 1778056785 | 13.33° C | 99% | 1006.7 hPa | 6.6 mm | - | 0 W/m² | - |
| 1778056483 | 13.33° C | 99% | 1006.8 hPa | 4.32 mm | - | 0 W/m² | - |
| 1778056180 | 13.33° C | 99% | 1006.8 hPa | 4.83 mm | - | 0 W/m² | - |
| 1778055877 | 13.33° C | 99% | 1006.8 hPa | 3.05 mm | - | 0 W/m² | - |
| 1778055573 | 13.33° C | 99% | 1006.4 hPa | 3.05 mm | - | 0 W/m² | - |
| 1778055271 | 13.33° C | 99% | 1006.8 hPa | 3.05 mm | - | 0 W/m² | - |
| 1778054968 | 13.33° C | 99% | 1006.7 hPa | 3.05 mm | - | 0 W/m² | - |
| 1778054665 | 13.33° C | 99% | 1006.6 hPa | 1.78 mm | - | 0 W/m² | - |
| 1778054363 | 13.33° C | 99% | 1006.2 hPa | 0 mm | - | 0 W/m² | - |
| 1778054060 | 13.33° C | 99% | 1006.6 hPa | 0 mm | - | 0 W/m² | - |
| 1778053757 | 13.33° C | 99% | 1006.4 hPa | 0 mm | - | 0 W/m² | - |
| 1778053454 | 13.33° C | 99% | 1006.6 hPa | 0 mm | - | 0 W/m² | - |
| 1778053151 | 13.33° C | 99% | 1006.4 hPa | 0 mm | - | 0 W/m² | - |
* Rain latest hour (hover to see other rain measurements)
** Current wind speed in m/s (hover to see current wind gust speed)